Location: ?ejeti?ky
(50.4060°N, 14.9016°E)
Time: 12:41:56
(UTC+00:00)

ISS - Pass Details

Date: 03 December 2021
Orbit: 413 x 422 km, 51.6° (Epoch: 18 January)

Event Time Altitude Azimuth Distance (km) Brightness Sun altitude
Rises 17:37:38 0° 286° (WNW) 2,384 1.2 -24.3°
Reaches altitude 10° 17:39:51 10° 277° (W) 1,514 0.1 -24.7°
Enters shadow 17:42:20 31° 236° (SW) 768 -2.0 -25.1°
